[Date Prev][Date Next][Thread Prev][Thread Next] - [Date Index][Thread Index][Author Index]
2 Line ISS Keps 12-6
- Subject: [sarex] 2 Line ISS Keps 12-6
- From: "Dave Larsen PhD" <doc@xxxxxxxxxxx>
- Date: Mon, 6 Dec 2004 02:46:21 -0800
ISS
1 25544U 98067A 04341.34381088 .00014079 00000-0 11429-3 0 3004
2 25544 51.6374 167.0767 0004306 81.9586 341.6561 15.71032269345365
----
Via the sarex mailing list at AMSAT.ORG courtesy of AMSAT-NA.
To unsubscribe, send "unsubscribe sarex" to Majordomo@amsat.org
AMSAT Home